Location: Potawatomi Wildlife Park
(41.2308°N, 86.1050°W)
Time: 20:14:09
(UTC-04:00)

Hubble Space Telescope - Visible Passes

Search period start: 16 October 2017 00:00
Search period end: 26 October 2017 00:00
Orbit: 537 x 541 km, 28.5° (Epoch: 16 October)

Date Brightness Start Highest point End Pass type
(mag) Time Alt. Az. Time Alt. Az. Time Alt. Az.
22 Oct 3.2 20:08:08 10° S 20:08:38 10° SSE 20:09:07 10° SSE visible
23 Oct 3.2 19:56:57 10° S 19:58:18 11° S 19:59:39 10° SSE visible
24 Oct 3.2 19:46:13 10° SSW 19:47:59 12° S 19:49:44 10° SSE visible
25 Oct 3.2 19:35:40 10° SSW 19:37:39 13° S 19:39:38 10° SE visible
25 Oct 3.6 21:16:20 10° SSW 21:16:38 11° SSW 21:16:38 11° SSW visible
